User: anonymous   Login
Location: York
(31.8935°S, 116.7682°E)
Time: 18:01:28
(UTC+08:00)
Language:

A-11 Canister half - Orbit

View from above orbital plane
View from above orbital plane
View from above satellite
View from above satellite

Ground track
Ground track

The orbit data is extracted from the following two-line orbital elements,

1 00053U 60009E   21165.88342361 -.00000034  00000-0  50610-3 0  9996
2 00053  47.2740 221.3074 0096571  72.6613 288.4713 12.17254223712716
Epoch (UTC): 14 June 2021 21:12:07
Eccentricity: 0.0096571
inclination: 47.2740°
perigee height: 1527 km
apogee height: 1681 km
right ascension of ascending node: 221.3074°
argument of perigee: 72.6613°
revolutions per day: 12.17254223
mean anomaly at epoch: 288.4713°
orbit number at epoch: 71271

The dashed part of the orbit path shows where the satellite is in the earth's shadow,  

DLR